This is the latest recevied weather packets stored in our database for station/object W0CHP-13. If no packets are shown the sender has not sent any weather packets the latest 10 day(s).
| Time | Temp. | Humidity | Pressure | Rain* | Wind** | Luminosity | Snow |
|---|---|---|---|---|---|---|---|
| 1778035998 | 9.44° C | 37% | 1009.8 hPa | 0 mm | - | 0 W/m² | - |
| 1778035396 | 10° C | 37% | 1009.6 hPa | 0 mm | - | 0 W/m² | - |
| 1778034798 | 10° C | 37% | 1009.4 hPa | 0 mm | - | 0 W/m² | - |
| 1778034196 | 10° C | 37% | 1009.6 hPa | 0 mm | - | 0 W/m² | - |
| 1778033598 | 10° C | 36% | 1009.6 hPa | 0 mm | - | 0 W/m² | - |
| 1778032996 | 10° C | 36% | 1009.4 hPa | 0 mm | - | 0 W/m² | - |
| 1778032399 | 10° C | 36% | 1009.2 hPa | 0 mm | - | 0 W/m² | - |
| 1778031797 | 10.56° C | 35% | 1008.9 hPa | 0 mm | - | 0 W/m² | - |
| 1778031195 | 10.56° C | 35% | 1008.9 hPa | 0 mm | - | 0 W/m² | - |
| 1778030598 | 10.56° C | 35% | 1008.9 hPa | 0 mm | - | 1 W/m² | - |
| 1778029995 | 10.56° C | 34% | 1008.9 hPa | 0 mm | - | 2 W/m² | - |
| 1778029398 | 10.56° C | 35% | 1008.7 hPa | 0 mm | - | 6 W/m² | - |
| 1778028796 | 10.56° C | 35% | 1008.5 hPa | 0 mm | - | 10 W/m² | - |
| 1778028198 | 10.56° C | 34% | 1008.7 hPa | 0 mm | - | 14 W/m² | - |
| 1778027596 | 11.11° C | 34% | 1008.5 hPa | 0 mm | - | 18 W/m² | - |
| 1778026998 | 11.11° C | 34% | 1008.5 hPa | 0 mm | - | 26 W/m² | - |
| 1778026396 | 11.67° C | 33% | 1008.5 hPa | 0 mm | - | 40 W/m² | - |
| 1778025799 | 11.67° C | 32% | 1008.5 hPa | 0 mm | - | 43 W/m² | - |
| 1778025197 | 11.67° C | 31% | 1008.5 hPa | 0 mm | - | 104 W/m² | - |
| 1778024595 | 11.67° C | 32% | 1008.5 hPa | 0 mm | - | 106 W/m² | - |
| 1778023997 | 11.67° C | 33% | 1008.4 hPa | 0 mm | - | 65 W/m² | - |
| 1778023395 | 11.67° C | 30% | 1008.5 hPa | 0 mm | - | 61 W/m² | - |
| 1778022797 | 12.22° C | 30% | 1008.5 hPa | 0 mm | - | 79 W/m² | - |
| 1778022195 | 12.22° C | 30% | 1008.5 hPa | 0 mm | - | 104 W/m² | - |
| 1778021598 | 12.78° C | 29% | 1008.5 hPa | 0 mm | - | 110 W/m² | - |
* Rain latest hour (hover to see other rain measurements)
** Current wind speed in m/s (hover to see current wind gust speed)